SCP
0 0 0 0 0 0 0 0 0 0 0 0 0 0 0 0 0 0 0 0 0 0 0 0 0 0 0 0 0 0 0 0 0 0 0 0 0 0 0 0 0 0 0
0 0 0 0 0 0 0 0 0 0 0 0 0 0 0 0 0 0 0 0 0 0 0 0 0 0 0 0 0 0 0 0 0 0 0 0 0 0 0 0 0 0 0
0 0 0 0 0 0 0 0 0 0 0 0 0 0 0 0 0 0 0 0 0 0 0 0 0 0 0 0 0 0 0 0 0 0 0 0 0 0 0 0 0 0 0
0 0 0 0 0 0 0 0 0 0 0 0 0 0 0 0 0 0 0 0 0 0 0 0 0 0 0 0 0 0 0 0 0 0 0 0 0 0 0 0 0 0 0
0 0 0 0 0 0 0 0 0 0 0 0 0 0 0 0 0 0 0 0 0 0 0 0 0 0 0 0 0 0 0 0 0 0 0 0 0 0 0 0 0 0 0
0 0 0 0 0 0 0 0 0 0 0 0 0 0 0 0 0 0 0 0 0 0 0 0 0 0 0 0 0 0 0 0 0 0 0 0 0 0 0 0 0 0 0
0 0 0 0 0 0 0 0 0 0 0 0 0 0 0 0 0 0 0 0 0 0 0 0 0 0 0 0 0 0 0 0 0 0 0 0 0 0 0 0 0 0 0
0 0 0 0 0 0 0 0 0 0 0 0 0 0 0 0 0 0 0 0 0 0 0 0 0 0 0 0 0 0 0 0 0 0 0 0 0 0 0 0 0 0 0
0 0 0 0 0 0 0 0 0 0 0 0 0 0 0 0 0 0 0 0 0 0 0 0 0 0 0 0 0 0 0 0 0 0 0 0 0 0 0 0 0 0 0
0 0 0 0 0 0 0 0 0 0 0 0 0 0 0 0 0 0 0 0 0 0 0 0 0 0 0 0 0 0 0 0 0 0 0 0 0 0 0 0 0 0 0
0 0 0 0 0 0 0 0 0 0 0 0 0 0 0 0 0 0 0 0 0 0 0 0 0 0 0 0 0 0 0 0 0 0 0 0 0 0 0 0 0 0 0
0 0 0 0 0 0 0 0 0 0 0 0 0 0 0 0 0 0 0 0 0 0 0 0 0 0 0 0 0 0 0 0 0 0 0 0 0 0 0 0 0 0 0
0 0 0 0 0 0 0 0 0 0 0 0 0 0 0 0 0 0 0 0 0 0 0 0 0 0 0 0 0 0 0 0 0 0 0 0 0 0 0 0 0 0 0
0 0 0 0 0 0 0 0 0 0 0 0 0 0 0 0 0 0 0 0 0 0 0 0 0 0 0 0 0 0 0 0 0 0 0 0 0 0 0 0 0 0 0
0 0 0 0 0 0 0 0 0 0 0 0 0 0 0 0 0 0 0 0 0 0 0 0 0 0 0 0 0 0 0 0 0 0 0 0 0 0 0 0 0 0 0
0 0 0 0 0 0 0 0 0 0 0 0 0 0 0 0 0 0 0 0 0 0 0 0 0 0 0 0 0 0 0 0 0 0 0 0 0 0 0 0 0 0 0
0 0 0 0 0 0 0 0 0 0 0 0 0 0 0 0 0 0 0 0 0 0 0 0 0 0 0 0 0 0 0 0 0 0 0 0 0 0 0 0 0 0 0
0 0 0 0 0 0 0 0 0 0 0 0 0 0 0 0 0 0 0 0 0 0 0 0 0 0 0 0 0 0 0 0 0 0 0 0 0 0 0 0 0 0 0
0 0 0 0 0 0 0 0 0 0 0 0 0 0 0 0 0 0 0 0 0 0 0 0 0 0 0 0 0 0 0 0 0 0 0 0 0 0 0 0 0 0 0
0 0 0 0 0 0 0 0 0 0 0 0 0 0 0 0 0 0 0 0 0 0 0 0 0 0 0 0 0 0 0 0 0 0 0 0 0 0 0 0 0 0 0
0 0 0 0 0 0 0 0 0 0 0 0 0 0 0 0 0 0 0 0 0 0 0 0 0 0 0 0 0 0 0 0 0 0 0 0 0 0 0 0 0 0 0
0 0 0 0 0 0 0 0 0 0 0 0 0 0 0 0 0 0 0 0 0 0 0 0 0 0 0 0 0 0 0 0 0 0 0 0 0 0 0 0 0 0 0
0 0 0 0 0 0 0 0 0 0 0 0 0 0 0 0 0 0 0 0 0 0 0 0 0 0 0 0 0 0 0 0 0 0 0 0 0 0 0 0 0 0 0
0 0 0 0 0 0 0 0 0 0 0 0 0 0 0 0 0 0 0 0 0 0 0 0 0 0 0 0 0 0 0 0 0 0 0 0 0 0 0 0 0 0 0
0 0 0 0 0 0 0 0 0 0 0 0 0 0 0 0 0 0 0 0 0 0 0 0 0 0 0 0 0 0 0 0 0 0 0 0 0 0 0 0 0 0 0
0 0 0 0 0 0 0 0 0 0 0 0 0 0 0 0 0 0 0 0 0 0 0 0 0 0 0 0 0 0 0 0 0 0 0 0 0 0 0 0 0 0 0
Wind_Speed
2 2 5 7 9 9 9 9 10 10 10 11 11 12 12 12 12 12 12 11 11 12 13 13 13 13 13 13 13 13 13 13 13 14 14 14 14 14 14 14 12 8 14
4 3 6 8 9 9 9 9 9 9 10 10 11 11 11 11 11 11 11 11 11 11 12 12 12 12 12 12 12 13 13 13 13 13 12 11 12 13 13 13 12 8 13
5 4 5 9 9 9 9 9 9 9 9 10 10 10 10 10 10 10 10 10 10 10 10 11 11 11 12 12 12 12 12 12 12 12 11 5 7 12 12 12 12 12 12
6 4 4 9 9 8 9 8 8 8 8 9 9 9 9 9 9 9 9 9 9 9 9 10 10 11 11 11 11 11 11 11 11 10 5 4 4 10 11 11 11 11 11
4 3 5 9 9 8 8 8 8 8 8 9 9 9 9 8 8 8 8 8 8 8 9 9 9 10 10 10 10 10 10 10 10 8 4 4 3 8 10 10 10 10 10
4 3 4 9 8 8 8 7 7 7 8 8 8 8 8 8 8 8 7 8 8 8 8 8 9 9 9 9 9 9 9 9 8 4 3 3 3 7 9 9 9 9 9
4 2 3 7 8 7 7 7 7 6 7 7 8 7 7 7 7 7 7 7 7 7 7 7 7 8 8 8 8 8 8 8 5 3 2 2 2 6 8 8 8 8 8
4 3 3 6 7 7 7 6 6 6 6 6 6 7 6 6 6 6 6 6 6 6 6 6 6 7 7 7 7 7 7 7 5 3 2 1 3 5 6 7 7 7 7
4 4 3 3 4 5 6 6 6 6 6 6 6 5 5 5 5 6 6 6 5 5 5 5 6 6 6 6 5 6 5 6 4 1 1 1 3 4 5 6 6 5 6
4 4 3 3 3 3 3 5 5 5 5 5 5 5 5 4 4 4 4 5 5 4 4 5 4 5 5 5 4 5 5 4 2 1 0 1 2 3 4 4 5 4 5
3 3 3 3 3 3 2 4 4 4 4 4 4 5 4 2 2 2 3 3 3 4 4 3 3 3 4 4 4 4 4 1 1 0 0 2 2 3 3 3 4 4 4
1 1 2 2 2 2 2 2 2 2 2 2 2 2 2 2 1 2 2 2 2 2 2 3 3 3 3 2 2 3 1 1 1 0 1 3 3 3 3 4 4 4 4
2 1 1 2 2 2 2 2 1 1 1 2 2 2 2 2 1 1 1 1 1 1 1 1 1 1 1 1 1 1 1 1 0 1 1 3 4 4 4 4 4 4 4
1 1 1 1 2 2 2 1 1 1 1 1 1 2 2 1 1 1 1 1 1 1 1 1 1 1 1 1 1 1 1 1 1 1 1 3 4 5 4 4 5 4 4
1 0 0 1 2 1 1 1 1 1 1 1 1 1 2 2 1 1 1 1 1 1 1 1 1 1 1 1 1 1 1 1 1 1 1 3 4 5 6 5 5 5 4
0 0 0 1 1 1 1 1 1 1 1 1 1 1 2 2 1 1 1 1 1 1 1 1 2 2 2 1 1 1 2 2 2 1 1 2 4 5 6 6 5 5 5
1 0 1 1 1 1 1 1 1 1 1 1 1 1 1 1 2 2 1 1 1 1 1 1 1 1 2 1 2 2 2 2 2 2 2 2 2 4 5 6 6 6 5
2 1 0 1 1 1 1 1 1 1 1 1 1 1 1 1 2 2 2 1 1 1 1 1 1 1 1 1 1 2 1 2 2 2 2 2 2 2 3 5 6 6 5
1 2 1 1 1 1 1 1 1 1 1 0 1 1 1 1 1 2 2 1 1 1 1 1 1 1 1 1 1 1 1 2 2 2 2 2 2 2 2 3 3 4 5
1 2 2 2 1 1 0 0 1 1 0 0 1 1 1 1 1 1 1 1 2 1 1 1 1 1 1 1 1 1 2 2 2 2 2 2 2 2 1 1 1 2 3
2 2 2 2 2 1 0 0 1 1 1 1 1 1 1 1 1 1 1 1 2 2 2 2 1 1 1 0 0 1 2 2 1 1 1 1 1 1 1 1 1 1 1
1 1 1 2 2 2 1 1 1 1 1 1 1 1 1 1 1 1 1 1 2 2 2 2 1 1 0 1 1 0 2 3 2 2 1 1 1 1 1 2 2 2 2
1 1 1 1 1 2 2 1 1 1 1 1 1 1 1 1 1 1 2 2 2 2 3 3 3 3 2 1 1 1 1 2 2 2 2 1 2 1 2 2 2 3 3
1 1 1 1 1 1 1 1 0 0 1 1 1 1 2 1 1 1 2 2 3 2 3 3 3 2 3 2 1 1 1 1 1 2 2 1 2 2 2 2 3 3 3
1 1 1 2 2 2 2 1 1 1 1 1 1 1 2 1 1 2 2 2 2 2 3 3 3 3 3 3 2 1 1 1 1 2 3 3 2 2 3 3 3 3 4
1 1 1 1 2 2 2 1 1 1 1 0 1 1 2 1 1 2 2 2 2 2 3 3 4 4 3 3 2 2 2 2 2 2 3 3 4 3 3 3 4 4 4
Wind_Direction
184 200 164 139 132 124 123 117 115 116 116 114 111 109 108 106 104 104 104 102 101 99 97 96 94 92 90 88 86 86 85 84 83 83 83 83 83 82 80 75 71 68 75
161 170 154 136 133 128 124 118 117 119 117 116 114 113 112 111 109 107 106 105 105 104 103 100 98 95 93 90 89 89 88 86 84 80 77 79 83 83 82 79 77 76 77
140 151 152 133 128 127 125 122 119 119 120 119 117 117 116 115 113 110 108 107 105 105 104 103 101 101 98 95 93 92 92 89 87 82 74 61 78 86 84 81 79 79 79
134 139 146 134 128 125 124 124 124 124 123 122 121 119 119 119 117 115 114 111 107 106 106 105 104 104 102 100 98 96 96 94 90 83 63 51 64 88 86 83 80 80 81
119 127 146 133 130 126 124 126 125 128 129 126 123 122 122 121 121 118 116 115 110 106 106 106 104 105 104 104 102 100 99 97 92 77 59 50 54 88 88 86 83 83 83
113 119 140 131 129 125 122 123 123 124 127 130 127 123 123 125 122 120 119 118 116 113 112 110 109 107 106 105 105 104 102 99 87 70 59 48 52 88 90 89 87 85 84
117 108 128 128 126 121 121 121 118 118 121 126 131 130 128 125 124 121 119 120 121 119 117 115 112 111 109 106 106 105 103 100 87 73 62 46 73 94 96 94 94 89 88
115 103 112 121 118 117 118 117 114 110 113 113 122 126 127 127 125 121 123 120 120 122 121 119 115 110 110 110 108 106 105 101 92 78 64 57 98 101 102 99 95 92 93
94 88 87 106 108 109 109 111 108 107 109 111 109 112 116 116 124 123 122 127 125 119 116 119 120 118 115 109 108 106 103 100 94 83 73 69 118 112 109 105 101 97 98
80 74 68 72 80 90 101 101 100 98 101 103 103 95 96 105 111 116 115 122 127 123 118 119 118 124 119 112 106 103 99 94 91 83 53 168 142 131 121 115 108 108 110
82 70 68 70 70 71 88 93 94 93 89 92 97 95 86 89 100 102 106 111 125 131 126 130 123 114 107 104 105 105 95 87 98 91 244 187 174 165 148 134 127 128 128
120 95 77 77 73 75 85 86 87 85 88 83 90 98 95 96 85 83 83 97 118 126 126 126 127 105 84 74 84 93 92 98 103 213 233 213 202 198 184 166 154 149 147
163 119 93 90 84 88 83 91 85 81 90 84 86 100 108 98 89 81 88 71 68 77 92 91 96 84 100 104 76 92 125 129 157 251 256 233 215 213 206 192 179 168 164
121 119 96 114 100 96 94 104 105 101 109 108 107 113 119 119 110 111 118 133 110 101 124 116 119 108 119 133 140 135 148 178 192 224 256 251 229 225 219 202 185 182 174
127 125 106 132 131 120 109 116 112 141 147 146 141 144 142 149 160 159 166 155 147 136 141 157 163 162 181 186 184 184 201 217 230 230 257 263 248 233 228 217 201 197 194
186 206 200 165 156 137 136 154 156 163 159 155 162 176 167 167 174 174 172 175 185 187 193 191 188 182 200 204 214 216 223 226 227 235 250 264 260 248 233 227 220 214 212
310 209 158 163 147 162 166 187 175 180 177 169 177 176 178 180 182 182 184 193 210 204 194 187 194 187 196 212 231 234 227 231 234 231 239 248 252 254 244 238 235 229 224
2 359 323 122 138 175 185 199 199 184 176 179 189 183 197 204 192 179 183 201 198 176 178 180 180 202 205 211 238 251 244 239 242 239 233 237 235 240 246 244 243 239 232
23 5 9 65 124 179 185 173 173 150 156 196 201 199 217 213 204 187 188 200 172 163 172 195 183 188 208 219 248 254 253 245 244 240 235 235 231 230 231 245 242 247 246
35 31 22 30 36 54 104 109 85 66 298 242 218 232 224 217 212 190 190 190 174 171 181 192 193 176 197 210 260 284 274 264 252 241 238 234 230 227 219 231 242 262 257
32 33 27 18 4 34 23 213 206 240 257 260 255 274 256 237 214 185 189 188 189 193 199 191 179 168 184 130 73 325 315 280 268 264 260 242 232 219 199 212 220 236 265
17 9 13 7 352 352 344 297 234 230 229 239 276 295 273 248 225 204 185 198 205 194 185 188 175 168 191 149 139 84 322 322 305 275 259 243 253 245 226 229 221 227 237
341 322 326 331 345 348 351 22 23 34 30 349 313 304 314 297 252 223 211 206 211 196 196 202 198 187 201 228 178 158 185 250 300 299 271 259 252 240 251 247 243 242 238
277 316 328 325 345 353 8 29 50 202 261 272 290 295 312 305 294 268 234 213 213 210 207 208 205 207 185 206 233 233 218 189 223 300 301 276 266 259 258 261 254 249 243
264 326 337 340 351 0 15 355 267 255 243 289 323 317 321 305 288 282 265 233 226 222 217 214 210 213 204 201 199 196 213 237 217 228 277 293 284 253 248 251 248 246 243
2 13 9 7 351 354 2 352 305 245 241 322 320 306 307 304 288 272 270 252 244 241 227 219 214 212 216 215 209 198 201 200 206 210 248 273 278 273 257 247 242 243 242